Cessna Pilot Center

Spirit Aviation is a Cessna Pilot Center (CPC) that is specially selected flight school that represents top-quality, professional flight training. These flight schools are hand-picked by Cessna Aircraft Company.

Each CPC has state-of-the-art training facilities incorporating the only integrated flight-training system available. CPCs also have clean, quiet study areas and classrooms, and new aircraft with strict maintenance requirements and modern components. And, each CPC carries $1 million in aviation insurance to protect you throughout your training.

Cessna Pilot Centers are associated with The Cessna Aircraft Company. Cessna ensures that they maintain the standards that have helped Cessna remain successful for over 75 years.

Cessna requires all CPCs to excel in customer service, with well-trained, professional instructors. They’re able to answer your questions and provide guidance throughout your aviation adventure, from Discovery Flight through buying your first airplane.

For more information about our Cessna Pilot Center and Thomson Flight Training, please contact Spirit Aviation Today!

NOAA Weather

KHQU

Last Updated on Jun 5 2024, 7:35 am EDT

Current Conditions: Mostly Cloudy

NOAA Icon

Temp: 71°F

Wind: South at 4mph

Humidity: 93%

Dewpoint: 68.5°F

Your 5-Day Forecast at a Glance

KHQU Metar

KHQU 211135Z AUTO 00000KT 10SM CLR 19/17 A3026 RMK AO2 T01940174